Wind_Speed
20 19 17 15 14 14 14 15 16 18 19 19 20 20 20 20 19 17 16 16 16 16 16 16 15 15 14 14 14 14 14 14 14 14 13 13 13 14 14 14 15 15
17 16 15 16 19 18 15 14 15 17 19 19 20 20 19 18 17 16 15 15 15 15 15 14 14 14 14 14 14 14 14 14 14 14 13 13 13 12 12 12 12 13
13 14 16 18 19 16 14 14 15 17 19 19 19 19 19 18 15 14 13 13 13 13 13 14 14 14 14 14 15 15 15 15 14 14 14 13 13 13 12 12 12 12
15 16 17 18 18 16 14 14 15 16 18 18 18 17 17 17 14 12 12 12 12 12 13 14 14 15 15 15 16 16 16 16 15 15 14 13 13 13 13 13 12 12
14 14 15 16 16 15 14 14 14 16 18 19 18 17 17 15 13 12 12 12 11 12 12 14 15 16 17 17 17 17 17 17 16 15 14 14 13 13 13 14 13 13
13 12 13 13 13 12 12 13 14 16 18 18 18 17 17 16 13 12 12 12 11 12 13 14 14 15 16 17 17 17 17 17 16 16 15 14 14 13 14 14 14 15
12 12 12 12 12 13 14 15 15 16 17 17 16 16 16 15 13 12 12 12 13 13 13 13 14 14 15 15 16 16 16 16 16 16 16 16 15 15 15 15 15 16
14 14 14 14 14 15 15 15 15 16 15 15 15 15 15 14 13 12 13 15 16 15 13 12 13 14 14 14 14 14 15 15 16 17 17 17 18 17 17 17 16 16
14 14 15 15 15 15 16 16 16 16 15 14 14 14 14 14 15 15 16 17 17 16 16 15 15 15 16 16 16 16 17 17 17 17 17 18 19 19 19 19 19 18
14 14 14 14 14 16 17 16 15 15 15 15 15 14 16 17 18 18 17 17 17 16 17 19 19 19 19 19 19 18 18 19 19 18 18 18 20 20 20 20 20 20
16 15 15 14 14 14 15 15 14 15 16 16 16 17 18 19 20 19 18 18 18 17 16 18 18 19 19 20 21 20 19 20 20 20 20 19 20 21 21 21 21 22
17 17 16 15 14 15 17 18 17 16 16 16 17 18 19 21 21 21 20 19 19 19 18 18 18 18 19 20 20 20 20 20 20 21 22 22 21 20 21 22 22 23
19 18 17 17 16 17 18 19 18 16 15 16 17 19 20 22 23 22 20 18 19 20 21 20 21 23 22 22 21 21 21 21 19 20 22 23 21 21 20 21 22 23
21 21 21 21 20 19 19 19 19 17 15 16 18 20 20 21 22 23 21 20 20 22 23 23 24 25 26 26 25 23 23 22 20 21 23 22 21 21 22 22 23 23
24 25 26 26 25 23 21 21 21 21 20 21 21 21 22 22 22 23 23 23 24 25 25 26 27 27 28 28 27 27 27 27 25 25 25 24 24 24 24 25 25 26
30 30 31 30 29 27 26 26 25 26 26 25 24 23 24 24 24 24 25 25 26 27 28 29 29 30 30 30 30 30 29 29 29 29 29 29 29 29 29 29 29 30
34 34 35 34 33 32 31 29 28 27 27 27 26 26 25 26 26 27 27 28 29 30 30 30 30 30 31 31 32 32 31 30 32 33 34 33 33 33 33 33 34 35
37 37 37 37 36 35 35 33 31 30 29 30 30 29 28 28 29 29 30 30 31 31 31 31 31 31 33 33 33 33 33 34 34 35 35 35 34 35 35 36 37 38
41 41 40 39 38 37 36 35 34 34 33 33 33 32 32 31 31 32 32 33 33 33 33 33 33 33 35 35 35 34 33 34 34 34 35 35 35 35 36 37 38 39
44 43 42 41 40 38 36 36 37 37 37 37 36 35 34 34 34 34 34 34 34 35 35 35 35 36 36 37 37 36 35 35 35 35 35 36 37 37 37 38 39 40
43 43 43 43 42 40 40 41 42 42 42 41 40 39 38 37 36 36 36 36 36 37 38 38 38 39 39 39 40 40 39 39 38 37 37 38 38 39 39 40 40 41
44 45 45 45 44 44 44 44 43 43 43 42 41 41 40 39 39 39 39 39 39 40 40 41 41 41 41 42 42 42 42 42 41 41 40 40 40 40 40 41 41 42
41 41 41 40 41 42 42 42 42 42 42 42 42 42 42 42 42 42 42 42 42 42 42 43 43 43 43 43 43 43 43 43 43 43 43 42 42 41 41 41 41 41
37 37 37 37 38 39 40 41 41 42 42 43 44 44 44 45 44 44 44 44 44 44 44 44 45 45 45 45 45 45 45 45 45 45 45 44 44 43 43 42 42 42
35 35 35 37 39 41 42 43 44 45 46 47 47 46 46 46 46 46 45 45 44 44 44 45 46 47 47 47 47 47 47 47 47 47 46 46 45 45 45 44 44 43
33 33 34 35 36 37 39 42 45 48 48 49 48 48 47 46 45 46 45 45 44 44 45 46 47 47 47 47 48 48 48 48 47 47 46 46 46 45 45 45 45 44
Wind_Direction
274 276 275 269 273 278 268 262 269 274 276 276 276 278 279 278 274 270 266 263 261 260 260 260 259 258 257 256 256 257 259 261 264 266 268 269 270 271 272 273 274 275
265 268 271 269 274 277 263 254 264 272 274 275 278 282 283 281 277 271 266 262 259 257 256 256 256 255 255 253 254 254 256 258 260 263 264 266 268 270 273 274 276 277
263 267 270 268 272 270 251 245 259 265 267 271 277 282 285 283 277 271 267 265 264 262 259 256 255 254 253 253 252 252 253 255 257 260 264 267 269 271 273 275 277 279
267 271 269 263 265 264 251 246 253 258 263 269 274 280 282 279 274 271 272 272 273 273 272 269 265 260 257 255 254 253 252 252 253 255 258 263 268 271 273 274 275 277
273 274 271 267 267 262 249 243 249 259 266 269 271 274 274 270 267 268 272 275 277 278 277 275 272 268 263 258 256 255 255 254 254 254 255 258 263 267 271 272 273 273
278 280 281 278 269 254 247 253 261 266 269 271 271 269 266 261 257 260 268 275 279 280 277 271 267 267 265 261 258 256 256 257 257 257 258 258 260 263 266 269 271 271
268 271 272 268 260 254 258 265 268 267 268 271 272 268 265 259 253 260 274 282 284 283 278 270 264 261 260 260 259 258 259 260 261 261 261 261 261 261 263 265 267 269
263 263 260 258 256 255 255 258 264 269 271 272 271 267 264 258 254 265 279 288 290 285 271 263 262 261 261 261 260 259 260 261 263 264 264 264 264 264 265 265 266 267
268 266 265 265 262 257 254 257 264 267 267 268 267 262 259 258 262 269 277 286 292 286 269 262 264 265 263 263 263 263 264 263 263 263 263 263 263 264 265 265 266 266
270 268 270 272 272 265 257 255 259 263 265 266 262 256 255 257 261 266 272 279 285 284 275 271 270 267 263 262 262 264 266 265 264 264 263 262 260 260 261 262 264 265
271 271 271 273 277 270 258 258 264 268 267 264 259 254 255 257 258 262 270 278 281 279 275 272 271 270 267 265 264 263 262 264 266 266 265 263 260 259 259 260 261 262
275 272 271 272 276 274 268 269 271 270 264 260 259 260 262 264 265 267 273 280 280 275 269 266 268 272 273 271 268 265 262 264 268 268 266 262 257 257 259 260 261 261
276 269 268 272 278 277 272 270 268 265 263 260 262 265 267 269 270 271 274 276 274 270 266 263 264 267 268 268 269 269 266 265 265 266 266 262 256 254 256 257 258 258
275 269 270 277 282 278 272 268 262 259 262 266 267 268 269 270 272 274 275 271 266 263 263 263 263 264 265 267 267 267 267 267 264 263 264 263 258 256 256 256 256 256
276 274 274 280 284 280 273 270 264 262 267 270 268 267 269 270 272 272 272 271 269 265 262 262 263 265 267 268 266 263 264 266 266 264 263 262 260 259 258 257 257 257
278 278 278 280 282 281 277 272 267 266 268 269 267 267 269 270 270 269 268 270 272 270 267 264 263 265 267 268 268 267 265 265 267 267 266 264 263 262 262 262 262 262
278 278 278 279 280 280 279 274 269 266 265 265 265 267 269 270 270 269 269 269 270 270 270 270 268 268 268 268 269 269 268 268 272 273 271 269 267 266 266 267 267 267
277 277 277 277 277 277 276 275 271 268 264 262 263 265 268 269 270 269 269 269 269 271 272 274 273 272 271 271 270 270 270 271 274 274 272 271 270 268 268 268 268 269
275 275 274 275 275 274 273 271 269 267 264 261 260 262 264 265 266 266 266 267 270 272 273 274 273 272 271 271 270 269 270 271 271 271 271 271 270 269 268 267 267 268
272 271 271 272 272 270 268 266 265 264 262 260 259 259 261 262 263 264 265 267 269 271 272 272 272 271 270 269 269 269 271 273 275 275 273 272 271 270 269 268 267 267
269 268 268 268 267 265 266 267 266 265 264 263 263 264 266 267 267 267 267 268 269 269 269 269 269 269 268 268 269 270 272 275 277 277 275 273 271 271 270 269 268 266
269 268 268 268 267 267 269 269 268 268 268 268 268 270 271 271 271 271 271 270 270 270 269 268 269 269 269 269 270 271 273 275 277 278 278 275 273 272 272 270 269 267
268 267 268 269 269 270 270 270 269 270 270 271 272 272 273 273 273 272 272 272 272 271 270 270 271 271 272 273 273 274 274 275 276 277 277 276 276 275 273 272 270 268
267 266 264 265 265 265 266 266 267 268 269 270 270 271 271 272 272 272 272 271 271 271 272 272 273 274 276 276 277 276 276 276 276 276 276 276 276 275 274 273 272 270
265 263 261 262 263 263 263 263 262 263 264 266 266 267 268 269 269 268 268 267 268 269 271 273 275 276 277 278 278 278 277 277 278 277 277 277 276 275 275 274 274 273
256 256 254 255 257 259 261 262 262 261 262 264 265 266 267 267 267 266 264 263 265 268 273 277 278 278 278 277 277 278 278 278 279 278 278 277 277 276 275 275 274 273
Height
5750 5750 5751 5752 5752 5752 5752 5752 5751 5751 5751 5751 5751 5752 5753 5753 5754 5754 5753 5753 5754 5754 5754 5753 5753 5753 5752 5752 5753 5753 5754 5754 5754 5754 5755 5755 5754 5754 5755 5755 5755 5756
5747 5748 5748 5748 5748 5749 5750 5750 5749 5749 5749 5748 5749 5749 5750 5751 5752 5751 5751 5751 5751 5752 5752 5751 5751 5751 5750 5750 5751 5751 5752 5752 5752 5753 5753 5753 5753 5753 5753 5753 5754 5754
5745 5745 5745 5745 5745 5746 5747 5747 5747 5746 5746 5746 5747 5747 5748 5749 5749 5749 5750 5750 5750 5750 5750 5750 5749 5749 5749 5749 5749 5750 5750 5750 5751 5751 5751 5752 5752 5752 5752 5752 5752 5752
5743 5743 5743 5743 5743 5743 5744 5744 5744 5744 5744 5745 5745 5745 5746 5746 5747 5747 5748 5748 5748 5748 5748 5748 5748 5747 5747 5748 5748 5748 5749 5749 5749 5749 5749 5750 5750 5751 5751 5751 5751 5751
5741 5741 5741 5740 5740 5741 5741 5742 5742 5742 5742 5742 5742 5743 5743 5744 5744 5745 5746 5746 5746 5746 5746 5746 5746 5746 5746 5746 5746 5747 5747 5748 5748 5748 5748 5748 5749 5749 5749 5750 5750 5749
5738 5739 5739 5739 5739 5739 5740 5740 5740 5740 5740 5740 5740 5740 5741 5741 5742 5742 5743 5744 5744 5744 5744 5744 5744 5744 5745 5745 5745 5745 5746 5746 5746 5747 5747 5747 5747 5747 5747 5748 5748 5748
5735 5735 5735 5736 5736 5737 5737 5738 5737 5737 5737 5737 5737 5738 5739 5740 5740 5741 5741 5741 5741 5742 5742 5742 5742 5743 5743 5743 5744 5744 5744 5745 5745 5745 5745 5745 5745 5745 5745 5745 5746 5746
5732 5732 5732 5732 5733 5733 5734 5735 5735 5734 5734 5734 5734 5735 5736 5737 5738 5739 5739 5739 5739 5739 5740 5740 5741 5741 5742 5742 5742 5742 5742 5743 5743 5743 5743 5743 5743 5743 5743 5743 5743 5743
5730 5730 5730 5730 5730 5730 5731 5732 5732 5731 5731 5731 5732 5733 5734 5735 5736 5736 5736 5736 5736 5737 5737 5738 5739 5739 5740 5740 5740 5741 5741 5741 5740 5740 5741 5741 5741 5741 5740 5740 5741 5741
5726 5727 5727 5727 5727 5727 5728 5728 5729 5728 5728 5729 5729 5730 5731 5732 5732 5733 5733 5733 5733 5734 5734 5735 5736 5736 5737 5737 5737 5738 5738 5738 5738 5738 5738 5738 5738 5738 5738 5738 5738 5738
5723 5724 5724 5724 5724 5724 5725 5725 5726 5726 5726 5726 5726 5727 5727 5728 5728 5729 5729 5730 5730 5731 5731 5732 5733 5733 5733 5734 5734 5735 5735 5735 5735 5735 5736 5736 5736 5736 5736 5735 5735 5735
5721 5721 5721 5721 5721 5722 5722 5722 5723 5723 5723 5723 5723 5724 5724 5725 5726 5726 5727 5727 5727 5728 5728 5729 5730 5730 5730 5730 5731 5731 5731 5732 5733 5733 5733 5733 5733 5733 5733 5733 5733 5732
5718 5718 5718 5719 5719 5719 5719 5720 5720 5720 5720 5720 5720 5721 5722 5722 5723 5723 5724 5725 5725 5725 5726 5726 5727 5727 5727 5727 5727 5728 5728 5729 5730 5730 5730 5729 5729 5729 5730 5730 5730 5730
5714 5714 5715 5715 5716 5716 5716 5717 5717 5716 5717 5717 5717 5718 5719 5719 5719 5720 5721 5721 5722 5722 5723 5723 5723 5723 5724 5724 5724 5725 5725 5725 5726 5726 5726 5726 5726 5726 5726 5726 5726 5726
5711 5711 5711 5712 5712 5712 5713 5713 5713 5713 5713 5714 5714 5715 5716 5716 5717 5717 5717 5718 5718 5719 5719 5720 5720 5719 5720 5720 5721 5721 5721 5721 5721 5722 5722 5722 5722 5722 5722 5722 5722 5722
5706 5706 5707 5707 5708 5709 5709 5710 5710 5709 5710 5710 5710 5711 5712 5713 5714 5714 5714 5714 5714 5715 5715 5715 5715 5715 5715 5716 5716 5717 5717 5717 5717 5718 5718 5718 5718 5718 5717 5717 5718 5718
5700 5701 5702 5703 5703 5704 5704 5705 5705 5705 5706 5706 5707 5707 5708 5709 5709 5710 5710 5710 5710 5710 5710 5710 5711 5711 5711 5711 5712 5713 5713 5712 5712 5713 5713 5713 5713 5713 5713 5713 5713 5713
5694 5695 5696 5697 5698 5699 5699 5699 5699 5700 5700 5701 5702 5702 5703 5704 5704 5705 5705 5705 5705 5705 5705 5705 5705 5706 5706 5706 5707 5708 5708 5708 5707 5707 5707 5708 5708 5708 5708 5708 5708 5708
5689 5689 5690 5691 5692 5693 5693 5694 5694 5695 5695 5696 5697 5697 5698 5699 5699 5700 5700 5700 5700 5700 5700 5700 5700 5700 5700 5701 5702 5703 5703 5703 5703 5703 5702 5702 5702 5703 5703 5703 5703 5703
5684 5684 5685 5685 5686 5687 5688 5689 5689 5690 5690 5691 5691 5692 5692 5693 5694 5694 5694 5694 5694 5694 5694 5694 5695 5695 5695 5696 5696 5697 5697 5697 5697 5697 5697 5697 5697 5697 5697 5698 5698 5698
5678 5678 5679 5680 5680 5681 5682 5682 5683 5683 5684 5684 5684 5684 5685 5685 5686 5687 5687 5688 5688 5689 5689 5689 5689 5690 5690 5691 5691 5691 5691 5692 5692 5692 5692 5692 5692 5692 5691 5692 5692 5692
5671 5671 5671 5672 5673 5673 5674 5674 5675 5675 5676 5676 5676 5676 5677 5677 5678 5679 5680 5681 5682 5682 5683 5683 5683 5683 5684 5684 5685 5686 5686 5686 5686 5686 5686 5686 5686 5686 5685 5685 5685 5685
5663 5663 5664 5664 5665 5666 5666 5667 5667 5668 5668 5669 5669 5670 5670 5670 5671 5672 5673 5674 5674 5675 5675 5676 5676 5676 5677 5678 5678 5679 5680 5680 5680 5679 5679 5679 5679 5679 5679 5679 5679 5679
5658 5658 5658 5659 5659 5660 5660 5661 5662 5662 5663 5663 5663 5664 5664 5664 5665 5665 5666 5667 5667 5668 5668 5669 5669 5670 5670 5671 5671 5672 5672 5673 5673 5673 5673 5672 5672 5672 5672 5672 5672 5672
5652 5652 5652 5653 5654 5654 5655 5656 5657 5657 5658 5658 5658 5658 5658 5659 5659 5659 5660 5660 5661 5662 5662 5663 5663 5663 5664 5664 5664 5665 5665 5665 5665 5665 5665 5665 5665 5665 5665 5665 5665 5665
5646 5646 5646 5647 5648 5648 5648 5649 5650 5651 5651 5652 5652 5652 5653 5653 5653 5654 5654 5655 5655 5656 5657 5657 5657 5658 5658 5658 5658 5658 5658 5658 5658 5658 5658 5658 5658 5658 5658 5658 5658 5658